sat.trackr.live / text

‹ back to catalog

SKYSAT-C10

NORAD 42988 · 2017-068B

PAYLOAD ACTIVE UNKNOWN

§ Identity

Operator
Country
US
Launch date
2017-10-31
Launch site
AFWTR
Launch vehicle
Mass (kg)
RCS (m²)

Purposes: earth_obs

External: N2YO · Heavens-Above · Gunter

§ Orbital elements

Epoch: 2026-09-15T16:29:05.453088Z

Period
93.75 min
Inclination
97.4634°
Eccentricity
0.0001367
Mean motion
15.36075073 rev/d
Perigee alt
456.8 km
Apogee alt
458.7 km
Semi-major
6,835.9 km
B*
2.2937e-4
RAAN
36.5813°
Arg perigee
86.3434°
Mean anomaly
273.7966°
Rev number
49,624

§ Raw data

SKYSAT-C101 42988U 17068B   26258.68686867  .00007977  00000+0  22937-3 0  99962 42988  97.4634  36.5813 0001367  86.3434 273.7966 15.36075073496249

JSON: /api/v1/satellites/42988 · /tle

For live sub-satellite position, see the globe view (requires WebGL).

§ Visibility from observer

Set your observer location to see the next 7 days of passes ≥ 10°. The values pass through the URL so the page stays shareable.

No JS? Fill the form by hand. The geolocation button needs JavaScript.